STARLINK-34144, 63958

Orbit data source: Space-Track

STARLINK-34144, 63958 is a payload satellite owned by SpaceX/Seattle (US) in LEO that was launched on Tue, 13 May 2025 UTC via an FALCON 9 launch vehicle from the Air Force Eastern Test Range (AFETR). Payload-class satellites include a variety of spacecraft equipped with specific instruments for various scientific and technological missions. These include communications satellites like Starlink; space stations such as the ISS; scientific satellites like the Hubble; Earth observation satellites from companies like Planet Labs, Umbra, and HawkEye 360; GPS; miniature CubeSats for education and research; and military/defense satellites.

Loading next visibility...
Identifier
63958, 2025-099G
Orbit
LEO
Country
Flag of USUS
Related business
Manufacturer
SpaceX/Seattle
Mission
Operational Commercial Communications
Bus & Motor
STARLINK V2MO, Unknown motor
Mass
575 kg wet, ~530 kg dry
Launch date (UTC)
2025-05-13 (11 months ago)
Launch vehicle
FALCON 9
Launch site
Air Force Eastern Test Range (AFETR)
Object type
Payload
Rocket body
Debris
Shape & HBR
Box + 2 Pan, 17.7 m
Radar Cross Section
36.964 m², Large (>1 m²)

Expand to show TLE details & history
Last TLE update: 7 hours ago

TLE from 7 hours ago
0 STARLINK-34144
1 63958U 25099G   26094.24993104  .00043489  00000-0  15816-2 0  9990
2 63958  43.0023  32.0252 0001176 281.4102  78.6617 15.27558978 51246
Epoch: 2026-04-04T05:59Z
TLE epoch observation values (Epoch: 2026-04-04T05:59:54.041Z)
Latitude
-0.00007°
Longitude
109.47754°
Altitude
482.729 km
Speed
7.626 km/s
True Right ascension
02h 08m 06s
True Declination
0° 00' 00"
Sunlit
Object was in daylight at epoch
Visualization orbit readout
Latitude
Unknown
Longitude
Unknown
Altitude
Unknown
Speed
Unknown
Apparent Right ascension
Unknown
Apparent Declination
Unknown
Sunlit
N/A
Visualization observer readout
Local Sidereal Time
19:13:06
Azimuth
Unknown
Elevation
Unknown
Doppler factor
Unknown
Orbital elements
Apogee altitude
485.864 km
Perigee altitude
484.25 km
Semi-major axis
6,863.194 km
Eccentricity
0.00012
Inclination
43.0023°
RAAN
32.0252°
Arg. of periapsis
281.4102°
True anomaly
78.67491°
Mean anomaly
78.6617°
Eccentric anomaly
78.66831°
Mean motion
3.81728 °/min
Orbital period
94.31 mins
BSTAR
0.0015816
Loading maneuver chart data...
Computing Atmospheric mass density...
Loading historical data...
Loading historical data...
Loading historical data...
Loading historical data...
Loading historical data...
Loading historical data...
Loading historical data...

Documentation

Showing up to 5 results
|